This demonstration page uses our WeatherBlox Daily Observations layout. Learn more.

Left ArrowRight Arrow

Hourly Observations for April 10, 2017

Temp ( °F °C ) Dew Point ( °F °C ) Humidity (%) Winds ( mph kmh ) Pressure ( in mb ) Visibility ( mi km ) Precip ( " mm )
12:59 am 00:59 Clear 58 14.4 41 5 53 53 SSW 12 19 30.23 1024 10 16 0.00 0.00
1:59 am 01:59 Clear 57 13.9 42 5.6 58 58 SSW 9 15 30.23 1024 10 16 0.00 0.00
2:59 am 02:59 Mostly Clear 55 12.8 42 5.6 62 62 SSW 8 13 30.23 1024 10 16 0.00 0.00
3:59 am 03:59 Partly Cloudy 54 12.2 43 6.1 67 67 SSW 10 17 30.24 1024 10 16 0.00 0.00
4:59 am 04:59 Mostly Cloudy 54 12.2 44 6.7 69 69 SSW 9 15 30.26 1025 10 16 0.00 0.00
5:59 am 05:59 Mostly Cloudy 54 12.2 45 7.2 72 72 SSW 9 15 30.27 1025 10 16 0.00 0.00
6:59 am 06:59 Mostly Cloudy 53 11.7 46 7.8 77 77 SW 8 13 30.29 1026 10 16 0.00 0.00
7:59 am 07:59 Mostly Cloudy 56 13.3 47 8.3 72 72 SSW 9 15 30.32 1027 10 16 0.00 0.00
8:59 am 08:59 Partly Cloudy 61 16.1 48 8.9 63 63 SW 10 17 30.33 1027 10 16 0.00 0.00
9:59 am 09:59 Partly Cloudy 66 18.9 46 7.8 49 49 SW 10 17 30.33 1027 10 16 0.00 0.00
10:59 am 10:59 Partly Cloudy 71 21.7 46 7.8 41 41 SSW 9 15 30.33 1027 10 16 0.00 0.00
11:59 am 11:59 Partly Cloudy 74 23.3 42 5.6 32 32 SW 15 24 30.31 1027 10 16 0.00 0.00
12:59 pm 12:59 Partly Cloudy 76 24.4 40 4.4 27 27 SW 15 24 30.29 1026 10 16 0.00 0.00
1:59 pm 13:59 Partly Cloudy 77 25 39 3.9 26 26 SW 13 20 30.27 1025 10 16 0.00 0.00
2:59 pm 14:59 Mostly Cloudy 78 25.6 41 5 27 27 SW 13 20 30.24 1024 10 16 0.00 0.00
3:59 pm 15:59 Mostly Cloudy 77 25 40 4.4 26 26 SW 8 13 30.22 1023 10 16 0.00 0.00
4:59 pm 16:59 Mostly Cloudy 78 25.6 41 5 27 27 S 9 15 30.21 1023 10 16 0.00 0.00
5:59 pm 17:59 Mostly Cloudy 77 25 41 5 28 28 SW 12 19 30.22 1023 10 16 0.00 0.00
6:59 pm 18:59 Mostly Cloudy 73 22.8 43 6.1 34 34 SSW 8 13 30.21 1023 10 16 0.00 0.00
7:59 pm 19:59 Mostly Cloudy 71 21.7 42 5.6 35 35 SSW 7 11 30.22 1023 10 16 0.00 0.00
8:59 pm 20:59 Mostly Cloudy 68 20 50 10 53 53 S 13 20 30.24 1024 10 16 0.00 0.00
9:59 pm 21:59 Mostly Cloudy 66 18.9 49 9.4 54 54 SSW 10 17 30.26 1025 10 16 0.00 0.00
10:59 pm 22:59 Mostly Cloudy 65 18.3 50 10 59 59 SSW 9 15 30.26 1025 10 16 0.00 0.00
11:59 pm 23:59 Partly Cloudy 64 17.8 50 10 60 60 SSW 10 17 30.26 1025 10 16 0.00 0.00

Powered by AerisWeather